ONEWEB-0274, 48992

Orbit data source: Space-Track

ONEWEB-0274, 48992 is a payload satellite owned by One Web (NAA) (UK) in LEO that was launched on Thu, 01 Jul 2021 UTC via a SOYUZ-2-1B launch vehicle from the Vostochny Cosmodrome (VOSTO). Payload-class satellites include a variety of spacecraft equipped with specific instruments for various scientific and technological missions. These include communications satellites like Starlink; space stations such as the ISS; scientific satellites like the Hubble; Earth observation satellites from companies like Planet Labs, Umbra, and HawkEye 360; GPS; miniature CubeSats for education and research; and military/defense satellites.

Loading next visibility...
Identifier
48992, 2021-060AB
Orbit
LEO
Country
Flag of UKUK
Related business
Manufacturer
One Web
Mission
Operational Commercial Communications
Bus & Motor
ARROW, Unknown motor
Mass
148 kg wet, ~140 kg dry
Launch date (UTC)
2021-07-01 (5 years ago)
Launch vehicle
SOYUZ-2-1B
Launch site
Vostochny Cosmodrome (VOSTO)
Object type
Payload
Rocket body
Debris
Shape & HBR
Trap Box + 2 Pan, 6.7 m
Radar Cross Section
3.464 m², Large (>1 m²)

Expand to show TLE details & history
Last TLE update: 2 days ago

TLE from 2 days ago
0 ONEWEB-0274
1 48992U 21060AB  26171.43237999 -.00000009  00000-0 -56878-4 0  9993
2 48992  87.9085 228.1420 0001883  89.6011 270.5336 13.16594362240052
Epoch: 2026-06-20T10:22Z
TLE epoch observation values (Epoch: 2026-06-20T10:22:37.631Z)
Latitude
0.00003°
Longitude
163.83812°
Altitude
1,200.64 km
Speed
7.254 km/s
True Right ascension
15h 12m 34s
True Declination
0° 00' 00"
Sunlit
Object was in full shadow at epoch
Visualization orbit readout
Latitude
Unknown
Longitude
Unknown
Altitude
Unknown
Speed
Unknown
Apparent Right ascension
Unknown
Apparent Declination
Unknown
Sunlit
N/A
Visualization observer readout
Local Sidereal Time
23:18:41
Azimuth
Unknown
Elevation
Unknown
Doppler factor
Unknown
Orbital elements
Apogee altitude
1,196.293 km
Perigee altitude
1,193.441 km
Semi-major axis
7,573.004 km
Eccentricity
0.00019
Inclination
87.9085°
RAAN
228.142°
Arg. of periapsis
89.6011°
True anomaly
270.51202°
Mean anomaly
270.5336°
Eccentric anomaly
270.52281°
Mean motion
3.29337 °/min
Orbital period
109.31 mins
BSTAR
-0.000056878
Loading maneuver chart data...
Computing Atmospheric mass density...
Loading historical data...
Loading historical data...
Loading historical data...
Loading historical data...
Loading historical data...
Loading historical data...
Loading historical data...

Documentation

Showing up to 5 results
|